Hourly Weather Roundup
Issued by NWS Central Illinois

Home | Current Version | Previous Version | Text Only | Print | Product List | Glossary On
Versions: 1 2 3 4 5 6 7 8 9 10 11 12 13 14 15 16 17 18 19 20 21 22 23 24 25 26 27 28 29 30 31 32 33 34 35 36 37 38 39 40 41 42 43 44 45 46 47 48 49 50
137
NZUS43 KILX 201310
HWRILX

AREA WEATHER ROUNDUP
NATIONAL WEATHER SERVICE, LINCOLN IL
700 AM CST FRI JAN 20 2017


CITY           SKY/WX    TMP DP  RH WIND       PRES   REMARKS
BLOOMINGTON    FOG       39  39 100 N6        29.60F VSB 3/4 WCI  35
CHAMPAIGN      FOG       43  41  93 S5        29.60F VSB 1/2
DANVILLE       CLOUDY    42  42  99 CALM      29.58F FOG
DECATUR        HAZE      44  31  60 SW6       29.63R VSB 1
EFFINGHAM      FOG       47  47 100 S8        29.67R VSB 1
FLORA          CLOUDY    51  50  97 SW6       29.67R FOG
GALESBURG      CLOUDY    36  36 100 E3        29.61R FOG
JACKSONVILLE   FOG       41  41  99 CALM      29.61R VSB 1/2
LACON          CLOUDY    36  36 100 CALM      29.62R FOG
LAWRENCEVILLE  CLOUDY    52  52 100 SW14      29.66R FOG
LITCHFIELD     FOG       43  43 100 S7        29.65R VSB 1/2
$$


CITY           SKY/WX    TMP DP  RH WIND       PRES   REMARKS
LINCOLN        FOG       42  42 100 CALM      29.62S VSB 1/2
MACOMB         FOG       37  37 100 CALM      29.64R VSB 1/2
MATTOON        FOG       46  45  96 W5        29.63R VSB 1/2
MT CARMEL AP   CLOUDY    52  50  93 SW10      29.66R FOG
OLNEY-NOBLE AP CLOUDY    48  48 100 SW5       29.67R FOG
PARIS          CLOUDY    45  45 100 W6        29.63R FOG
PEORIA         FOG       38  38 100 CALM      29.62R VSB 3/4
PONTIAC        FOG       38  38 100 N5        29.62F VSB 1/2 WCI  34
RANTOUL        CLOUDY    44  44 100 CALM      29.59F FOG
SPRINGFIELD    FOG       44  42  93 CALM      29.63R VSB 3/4
TAYLORVILLE    CLOUDY    44  44 100 SW5       29.63R FOG
$$

...REGIONAL REPORTS...


CITY           SKY/WX    TMP DP  RH WIND       PRES   REMARKS
CHICAGO O`HARE LGT RAIN  38  37  97 NE7       29.62S FOG     WCI  33
KANKAKEE       LGT RAIN  38  38  97 CALM      29.63R
MOLINE         FOG       37  35  92 E6        29.61S VSB 3/4 WCI  32
MOUNT STERLING FOG       39  39 100 CALM      29.61R VSB 1/2
MOUNT VERNON   CLOUDY    50  50 100 SW8       29.67R
PITTSFIELD     FOG       43  43 100 S5        29.65R VSB 1/2
QUINCY         FOG       41  41 100 CALM      29.62R VSB 1/4
ROCKFORD       DRIZZLE   38  36  92 NE5       29.64S FOG     WCI  34
$$


CITY           SKY/WX    TMP DP  RH WIND       PRES   REMARKS
BURLINGTON     FOG       37  37 100 CALM      29.62R VSB 1/4
CEDAR RAPIDS   FOG       35  35 100 E8        29.60S VSB 3/4 WCI  29
DES MOINES     FOG       37  36  96 E7        29.59F VSB 1/4 WCI  32
KIRKSVILLE     FOG       40  39  97 CALM      29.61R VSB 1/4
OTTUMWA        FOG       36  36 100 NW3       29.60R VSB 3/4
ST LOUIS       CLOUDY    49  47  93 S3        29.64R FOG
$$


CITY           SKY/WX    TMP DP  RH WIND       PRES   REMARKS
TERRE HAUTE    FOG       49  48  97 SW5       29.63R VSB 3/4
EVANSVILLE     CLOUDY    54  51  90 SW9       29.68S
INDIANAPOLIS   FOG       49  49 100 SW10      29.62R VSB 1/4
LAFAYETTE      CLOUDY    42  42 100 CALM      29.60R FOG
MADISON        LGT RAIN  35  34  96 NE5       29.66S FOG     WCI  31
MILWAUKEE      LGT RAIN  38  36  92 E9        29.66F VSB 1/2 WCI  31
$$






USA.gov is the U.S. government's official web portal to all federal, state and local government web resources and services.